Time,TemperatureF,DewpointF,PressureIn,WindDirection,WindDirectionDegrees,WindSpeedMPH,WindSpeedGustMPH,Humidity,HourlyPrecipIn,Conditions,Clouds,dailyrainin,SolarRadiationWatts/m^2,SoftwareType,DateUTC
2013-08-25 00:00:00,59.3,58.2,30.31,SE,131,0.0,0.0,96,0.00,,,0.00,0,Wunderground v.1.15,2013-08-25 04:00:00,
2013-08-25 00:10:00,59.0,57.9,30.31,SE,131,0.0,0.0,96,0.00,,,0.00,0,Wunderground v.1.15,2013-08-25 04:10:00,
2013-08-25 00:20:00,58.3,57.2,30.31,SE,131,0.0,0.0,96,0.00,,,0.00,0,Wunderground v.1.15,2013-08-25 04:20:00,
2013-08-25 00:30:00,59.0,57.9,30.31,SE,131,0.0,0.0,96,0.00,,,0.00,0,Wunderground v.1.15,2013-08-25 04:30:00,
2013-08-25 00:39:00,58.6,57.5,30.30,SE,131,0.0,0.0,96,0.00,,,0.00,0,Wunderground v.1.15,2013-08-25 04:39:00,
2013-08-25 00:50:00,58.8,57.7,30.30,SE,131,0.0,0.0,96,0.00,,,0.00,0,Wunderground v.1.15,2013-08-25 04:50:00,
2013-08-25 01:00:00,58.2,57.1,30.31,SE,131,0.0,0.0,96,0.00,,,0.00,0,Wunderground v.1.15,2013-08-25 05:00:00,
2013-08-25 01:10:00,57.5,56.4,30.31,SE,131,0.0,0.0,96,0.00,,,0.00,0,Wunderground v.1.15,2013-08-25 05:10:00,
2013-08-25 01:20:00,57.6,56.8,30.30,SE,131,0.0,0.0,97,0.00,,,0.00,0,Wunderground v.1.15,2013-08-25 05:20:00,
2013-08-25 01:30:00,57.8,57.0,30.30,SE,131,0.0,0.0,97,0.00,,,0.00,0,Wunderground v.1.15,2013-08-25 05:30:00,
2013-08-25 01:40:00,57.7,56.6,30.30,SE,131,0.0,0.0,96,0.00,,,0.00,0,Wunderground v.1.15,2013-08-25 05:40:00,
2013-08-25 01:50:00,57.5,56.7,30.30,SE,131,0.0,0.0,97,0.00,,,0.00,0,Wunderground v.1.15,2013-08-25 05:50:00,
2013-08-25 02:00:00,57.1,56.0,30.30,SE,131,0.0,0.0,96,0.00,,,0.00,0,Wunderground v.1.15,2013-08-25 06:00:00,
2013-08-25 02:10:00,56.9,56.1,30.30,SE,131,0.0,0.0,97,0.00,,,0.00,0,Wunderground v.1.15,2013-08-25 06:10:00,
2013-08-25 02:20:00,56.6,55.8,30.30,SE,131,0.0,0.0,97,0.00,,,0.00,0,Wunderground v.1.15,2013-08-25 06:20:00,
2013-08-25 02:30:00,56.3,55.5,30.30,SE,131,0.0,0.0,97,0.00,,,0.00,0,Wunderground v.1.15,2013-08-25 06:30:00,
2013-08-25 02:40:00,56.2,55.4,30.30,SE,131,0.0,0.0,97,0.00,,,0.00,0,Wunderground v.1.15,2013-08-25 06:40:00,
2013-08-25 02:50:00,56.2,55.4,30.30,SE,131,0.0,0.0,97,0.00,,,0.00,0,Wunderground v.1.15,2013-08-25 06:50:00,
2013-08-25 03:00:00,56.0,55.2,30.30,SE,131,0.0,0.0,97,0.00,,,0.00,0,Wunderground v.1.15,2013-08-25 07:00:00,
2013-08-25 03:10:00,56.2,55.4,30.30,SE,131,0.0,0.0,97,0.00,,,0.00,0,Wunderground v.1.15,2013-08-25 07:10:00,
2013-08-25 03:20:00,55.9,55.1,30.31,SE,131,0.0,0.0,97,0.00,,,0.00,0,Wunderground v.1.15,2013-08-25 07:20:00,
2013-08-25 03:30:00,55.5,54.7,30.31,SE,131,0.0,0.0,97,0.00,,,0.00,0,Wunderground v.1.15,2013-08-25 07:30:00,
2013-08-25 03:40:00,55.3,54.5,30.31,SE,131,0.0,0.0,97,0.00,,,0.00,0,Wunderground v.1.15,2013-08-25 07:40:00,
2013-08-25 03:50:00,55.6,54.8,30.31,SE,131,0.0,0.0,97,0.00,,,0.00,0,Wunderground v.1.15,2013-08-25 07:50:00,
2013-08-25 04:00:00,55.4,54.6,30.31,SE,131,0.0,0.0,97,0.00,,,0.00,0,Wunderground v.1.15,2013-08-25 08:00:00,
2013-08-25 04:10:00,55.3,54.5,30.32,SE,131,0.0,0.0,97,0.00,,,0.00,0,Wunderground v.1.15,2013-08-25 08:10:00,
2013-08-25 04:20:00,55.4,54.6,30.32,SE,131,0.0,0.0,97,0.00,,,0.00,0,Wunderground v.1.15,2013-08-25 08:20:00,
2013-08-25 04:30:00,55.1,54.3,30.32,SE,131,0.0,0.0,97,0.00,,,0.00,0,Wunderground v.1.15,2013-08-25 08:30:00,
2013-08-25 04:40:00,54.6,53.8,30.32,SE,131,0.0,0.0,97,0.00,,,0.00,0,Wunderground v.1.15,2013-08-25 08:40:00,
2013-08-25 04:50:00,54.8,54.0,30.32,SE,131,0.0,0.0,97,0.00,,,0.00,0,Wunderground v.1.15,2013-08-25 08:50:00,
2013-08-25 05:00:00,54.5,53.7,30.32,SE,131,0.0,0.0,97,0.00,,,0.00,0,Wunderground v.1.15,2013-08-25 09:00:00,
2013-08-25 05:10:00,54.8,54.0,30.33,SE,131,0.0,0.0,97,0.00,,,0.01,0,Wunderground v.1.15,2013-08-25 09:10:00,
2013-08-25 05:20:00,54.9,54.1,30.33,SE,131,0.0,0.0,97,0.00,,,0.01,0,Wunderground v.1.15,2013-08-25 09:20:00,
2013-08-25 05:30:00,54.4,53.6,30.33,SE,131,0.0,0.0,97,0.00,,,0.01,0,Wunderground v.1.15,2013-08-25 09:30:00,
2013-08-25 05:40:00,54.5,53.7,30.33,SE,131,0.0,0.0,97,0.00,,,0.01,0,Wunderground v.1.15,2013-08-25 09:40:00,
2013-08-25 05:50:00,54.6,53.8,30.34,SE,131,0.0,0.0,97,0.00,,,0.01,0,Wunderground v.1.15,2013-08-25 09:50:00,
2013-08-25 06:00:00,54.2,53.4,30.34,SE,131,0.0,0.0,97,0.00,,,0.01,0,Wunderground v.1.15,2013-08-25 10:00:00,
2013-08-25 06:10:00,54.4,53.6,30.35,SE,131,0.0,0.0,97,0.00,,,0.01,0,Wunderground v.1.15,2013-08-25 10:10:00,
2013-08-25 06:20:00,54.8,54.2,30.35,SE,131,0.0,0.0,98,0.00,,,0.01,0,Wunderground v.1.15,2013-08-25 10:20:00,
2013-08-25 06:30:00,54.5,53.7,30.35,SE,131,0.0,0.0,97,0.00,,,0.01,0,Wunderground v.1.15,2013-08-25 10:30:00,
2013-08-25 06:40:00,54.6,54.0,30.35,SE,131,0.0,0.0,98,0.00,,,0.01,5,Wunderground v.1.15,2013-08-25 10:40:00,
2013-08-25 06:50:00,54.6,54.0,30.35,SE,131,0.0,0.0,98,0.00,,,0.01,12,Wunderground v.1.15,2013-08-25 10:50:00,
2013-08-25 07:00:00,55.2,54.6,30.36,SE,131,0.0,0.0,98,0.00,,,0.01,28,Wunderground v.1.15,2013-08-25 11:00:00,
2013-08-25 07:10:00,55.7,55.1,30.36,SE,131,0.0,0.0,98,0.00,,,0.01,46,Wunderground v.1.15,2013-08-25 11:10:00,
2013-08-25 07:19:00,55.1,54.3,30.37,SE,131,0.0,0.0,97,0.00,,,0.01,74,Wunderground v.1.15,2013-08-25 11:19:00,
2013-08-25 07:30:00,56.6,56.0,30.37,SE,127,0.0,0.0,98,0.00,,,0.01,58,Wunderground v.1.15,2013-08-25 11:30:00,
2013-08-25 07:40:00,57.2,56.6,30.37,SE,131,0.0,0.0,98,0.00,,,0.01,132,Wunderground v.1.15,2013-08-25 11:40:00,
2013-08-25 07:50:00,57.7,57.1,30.37,SE,131,0.0,0.0,98,0.00,,,0.01,163,Wunderground v.1.15,2013-08-25 11:50:00,
2013-08-25 08:00:00,58.5,57.9,30.38,SE,131,0.0,0.0,98,0.00,,,0.01,193,Wunderground v.1.15,2013-08-25 12:00:00,
2013-08-25 08:10:00,59.1,58.5,30.38,SE,131,0.0,0.0,98,0.00,,,0.01,206,Wunderground v.1.15,2013-08-25 12:10:00,
2013-08-25 08:20:00,60.0,59.4,30.37,SE,131,0.0,0.0,98,0.00,,,0.01,223,Wunderground v.1.15,2013-08-25 12:20:00,
2013-08-25 08:30:00,60.9,60.3,30.38,SE,131,0.0,0.0,98,0.00,,,0.01,253,Wunderground v.1.15,2013-08-25 12:30:00,
2013-08-25 08:40:00,62.0,61.1,30.38,SE,127,0.0,0.0,97,0.00,,,0.01,287,Wunderground v.1.15,2013-08-25 12:40:00,
2013-08-25 08:50:00,62.9,61.7,30.38,SE,131,0.0,0.0,96,0.00,,,0.01,306,Wunderground v.1.15,2013-08-25 12:50:00,
2013-08-25 08:59:00,64.2,62.7,30.38,SE,131,0.0,0.0,95,0.00,,,0.01,339,Wunderground v.1.15,2013-08-25 12:59:00,
2013-08-25 09:10:00,65.6,63.2,30.39,SE,131,0.0,0.0,92,0.00,,,0.01,413,Wunderground v.1.15,2013-08-25 13:10:00,
2013-08-25 09:20:00,66.9,63.9,30.38,SE,131,1.0,1.0,90,0.00,,,0.01,427,Wunderground v.1.15,2013-08-25 13:20:00,
2013-08-25 09:30:00,67.9,64.9,30.38,SE,131,0.0,0.0,90,0.00,,,0.01,510,Wunderground v.1.15,2013-08-25 13:30:00,
2013-08-25 09:40:00,68.7,64.3,30.38,SE,141,1.0,3.0,86,0.00,,,0.01,531,Wunderground v.1.15,2013-08-25 13:40:00,
2013-08-25 09:50:00,69.0,64.0,30.37,SSE,161,1.0,1.0,84,0.00,,,0.01,503,Wunderground v.1.15,2013-08-25 13:50:00,
2013-08-25 10:00:00,69.3,64.6,30.38,SE,133,2.0,5.0,85,0.00,,,0.01,536,Wunderground v.1.15,2013-08-25 14:00:00,
2013-08-25 10:10:00,69.8,64.4,30.38,SSE,155,1.0,1.0,83,0.00,,,0.01,510,Wunderground v.1.15,2013-08-25 14:10:00,
2013-08-25 10:20:00,70.5,65.1,30.38,SSE,160,1.0,1.0,83,0.00,,,0.01,520,Wunderground v.1.15,2013-08-25 14:20:00,
2013-08-25 10:30:00,70.9,65.1,30.38,SSE,153,1.0,1.0,82,0.00,,,0.01,647,Wunderground v.1.15,2013-08-25 14:30:00,
2013-08-25 10:40:00,71.3,65.5,30.37,SW,232,0.0,0.0,82,0.00,,,0.01,519,Wunderground v.1.15,2013-08-25 14:40:00,
2013-08-25 10:50:00,71.7,65.2,30.37,SSW,207,0.0,0.0,80,0.00,,,0.01,346,Wunderground v.1.15,2013-08-25 14:50:00,
2013-08-25 11:00:00,72.0,65.8,30.36,SSE,153,1.0,1.0,81,0.00,,,0.01,661,Wunderground v.1.15,2013-08-25 15:00:00,
2013-08-25 11:10:00,72.2,65.7,30.37,SE,145,2.0,2.0,80,0.00,,,0.01,656,Wunderground v.1.15,2013-08-25 15:10:00,
2013-08-25 11:20:00,72.4,65.2,30.37,SSE,150,1.0,2.0,78,0.00,,,0.01,577,Wunderground v.1.15,2013-08-25 15:20:00,
2013-08-25 11:30:00,73.8,65.4,30.37,South,188,1.0,1.0,75,0.00,,,0.01,752,Wunderground v.1.15,2013-08-25 15:30:00,
2013-08-25 11:40:00,73.8,65.8,30.36,SE,142,1.0,3.0,76,0.00,,,0.01,837,Wunderground v.1.15,2013-08-25 15:40:00,
2013-08-25 11:50:00,74.5,65.7,30.36,SSE,148,2.0,2.0,74,0.00,,,0.01,846,Wunderground v.1.15,2013-08-25 15:50:00,
2013-08-25 12:00:00,75.3,66.8,30.36,SE,131,1.0,1.0,75,0.00,,,0.01,812,Wunderground v.1.15,2013-08-25 16:00:00,
2013-08-25 12:10:00,75.7,66.8,30.35,WSW,240,1.0,1.0,74,0.00,,,0.01,863,Wunderground v.1.15,2013-08-25 16:10:00,
2013-08-25 12:20:00,75.6,66.3,30.35,WSW,254,1.0,1.0,73,0.00,,,0.01,272,Wunderground v.1.15,2013-08-25 16:20:00,
2013-08-25 12:30:00,76.0,65.1,30.35,South,171,1.0,1.0,69,0.00,,,0.01,972,Wunderground v.1.15,2013-08-25 16:30:00,
2013-08-25 12:40:00,76.9,66.4,30.35,SE,142,3.0,3.0,70,0.00,,,0.01,1011,Wunderground v.1.15,2013-08-25 16:40:00,
2013-08-25 12:50:00,75.8,65.3,30.34,SE,136,0.0,6.0,70,0.00,,,0.01,918,Wunderground v.1.15,2013-08-25 16:50:00,
2013-08-25 13:00:00,77.3,65.5,30.34,West,267,2.0,2.0,67,0.00,,,0.01,947,Wunderground v.1.15,2013-08-25 17:00:00,
2013-08-25 13:10:00,77.7,65.4,30.33,WSW,249,2.0,2.0,66,0.00,,,0.01,932,Wunderground v.1.15,2013-08-25 17:10:00,
2013-08-25 13:20:00,78.3,65.6,30.33,SSE,159,1.0,1.0,65,0.00,,,0.01,918,Wunderground v.1.15,2013-08-25 17:20:00,
2013-08-25 13:30:00,77.5,63.5,30.33,SSE,152,1.0,1.0,62,0.00,,,0.01,724,Wunderground v.1.15,2013-08-25 17:30:00,
2013-08-25 13:40:00,77.8,64.2,30.33,West,259,1.0,1.0,63,0.00,,,0.01,202,Wunderground v.1.15,2013-08-25 17:40:00,
2013-08-25 13:50:00,78.4,64.3,30.32,SSE,162,1.0,1.0,62,0.00,,,0.01,977,Wunderground v.1.15,2013-08-25 17:50:00,
2013-08-25 14:00:00,78.2,64.6,30.32,SE,128,2.0,2.0,63,0.00,,,0.01,918,Wunderground v.1.15,2013-08-25 18:00:00,
2013-08-25 14:10:00,78.3,64.2,30.32,South,183,1.0,1.0,62,0.00,,,0.01,947,Wunderground v.1.15,2013-08-25 18:10:00,
2013-08-25 14:20:00,78.5,63.5,30.32,SSE,152,1.0,2.0,60,0.00,,,0.01,909,Wunderground v.1.15,2013-08-25 18:20:00,
2013-08-25 14:30:00,78.5,63.9,30.31,SSE,149,1.0,3.0,61,0.00,,,0.01,919,Wunderground v.1.15,2013-08-25 18:30:00,
2013-08-25 14:40:00,78.7,62.7,30.31,SE,130,2.0,2.0,58,0.00,,,0.01,868,Wunderground v.1.15,2013-08-25 18:40:00,
2013-08-25 14:50:00,78.7,62.2,30.30,SE,146,1.0,1.0,57,0.00,,,0.01,870,Wunderground v.1.15,2013-08-25 18:50:00,
2013-08-25 15:00:00,79.1,65.0,30.30,SE,144,1.0,5.0,62,0.00,,,0.01,886,Wunderground v.1.15,2013-08-25 19:00:00,
2013-08-25 15:10:00,80.3,64.2,30.30,SW,232,2.0,2.0,58,0.00,,,0.01,844,Wunderground v.1.15,2013-08-25 19:10:00,
2013-08-25 15:20:00,79.0,63.0,30.30,SW,229,0.0,0.0,58,0.00,,,0.01,840,Wunderground v.1.15,2013-08-25 19:20:00,
2013-08-25 15:30:00,78.3,64.7,30.30,West,281,0.0,0.0,63,0.00,,,0.01,169,Wunderground v.1.15,2013-08-25 19:30:00,
2013-08-25 15:40:00,78.7,62.2,30.30,SSW,208,1.0,1.0,57,0.00,,,0.01,749,Wunderground v.1.15,2013-08-25 19:40:00,
2013-08-25 15:50:00,79.7,64.1,30.29,SE,138,1.0,5.0,59,0.00,,,0.01,691,Wunderground v.1.15,2013-08-25 19:50:00,
2013-08-25 16:00:00,79.1,63.5,30.28,SSE,147,1.0,3.0,59,0.00,,,0.01,677,Wunderground v.1.15,2013-08-25 20:00:00,
2013-08-25 16:10:00,79.4,63.3,30.28,SSE,148,1.0,5.0,58,0.00,,,0.01,645,Wunderground v.1.15,2013-08-25 20:10:00,
2013-08-25 16:20:00,79.7,63.1,30.28,SE,146,2.0,2.0,57,0.00,,,0.01,626,Wunderground v.1.15,2013-08-25 20:20:00,
2013-08-25 16:30:00,79.6,63.5,30.27,SE,138,1.0,3.0,58,0.00,,,0.01,591,Wunderground v.1.15,2013-08-25 20:30:00,
2013-08-25 16:40:00,79.6,62.5,30.26,SE,144,1.0,1.0,56,0.00,,,0.01,543,Wunderground v.1.15,2013-08-25 20:40:00,
2013-08-25 16:50:00,79.8,63.2,30.26,SE,146,2.0,2.0,57,0.00,,,0.01,534,Wunderground v.1.15,2013-08-25 20:50:00,
2013-08-25 17:00:00,79.7,62.1,30.26,SE,144,1.0,3.0,55,0.00,,,0.01,455,Wunderground v.1.15,2013-08-25 21:00:00,
2013-08-25 17:10:00,79.6,63.0,30.26,SSE,158,2.0,4.0,57,0.00,,,0.01,462,Wunderground v.1.15,2013-08-25 21:10:00,
2013-08-25 17:20:00,79.3,62.2,30.26,SSE,150,3.0,3.0,56,0.00,,,0.01,441,Wunderground v.1.15,2013-08-25 21:20:00,
2013-08-25 17:30:00,79.3,62.2,30.26,SE,128,2.0,2.0,56,0.00,,,0.01,383,Wunderground v.1.15,2013-08-25 21:30:00,
2013-08-25 17:40:00,79.4,62.3,30.26,SE,142,1.0,1.0,56,0.00,,,0.01,260,Wunderground v.1.15,2013-08-25 21:40:00,
2013-08-25 17:50:00,79.0,63.0,30.25,SE,144,1.0,3.0,58,0.00,,,0.01,255,Wunderground v.1.15,2013-08-25 21:50:00,
2013-08-25 18:00:00,79.0,61.5,30.25,SSE,148,1.0,2.0,55,0.00,,,0.01,304,Wunderground v.1.15,2013-08-25 22:00:00,
2013-08-25 18:09:00,78.7,62.2,30.25,SSE,157,1.0,1.0,57,0.00,,,0.01,181,Wunderground v.1.15,2013-08-25 22:09:00,
2013-08-25 18:20:00,78.1,62.1,30.25,SSE,155,1.0,1.0,58,0.00,,,0.01,62,Wunderground v.1.15,2013-08-25 22:20:00,
2013-08-25 18:30:00,77.6,62.6,30.24,SSE,155,0.0,0.0,60,0.00,,,0.01,62,Wunderground v.1.15,2013-08-25 22:30:00,
2013-08-25 18:40:00,77.2,62.2,30.24,South,171,0.0,0.0,60,0.00,,,0.01,76,Wunderground v.1.15,2013-08-25 22:40:00,
2013-08-25 18:50:00,76.8,63.2,30.24,SSE,152,0.0,0.0,63,0.00,,,0.01,53,Wunderground v.1.15,2013-08-25 22:50:00,
2013-08-25 19:00:00,76.4,62.9,30.24,SSE,158,0.0,0.0,63,0.00,,,0.01,32,Wunderground v.1.15,2013-08-25 23:00:00,
2013-08-25 19:10:00,75.7,62.7,30.23,South,175,0.0,0.0,64,0.00,,,0.01,26,Wunderground v.1.15,2013-08-25 23:10:00,
2013-08-25 19:20:00,75.0,62.9,30.23,South,173,0.0,0.0,66,0.00,,,0.01,21,Wunderground v.1.15,2013-08-25 23:20:00,
2013-08-25 19:30:00,74.6,62.5,30.23,South,173,0.0,0.0,66,0.00,,,0.01,18,Wunderground v.1.15,2013-08-25 23:30:00,
2013-08-25 19:40:00,73.6,62.8,30.23,South,173,0.0,0.0,69,0.00,,,0.01,12,Wunderground v.1.15,2013-08-25 23:40:00,
2013-08-25 19:50:00,72.3,62.8,30.23,South,173,0.0,0.0,72,0.00,,,0.01,0,Wunderground v.1.15,2013-08-25 23:50:00,
2013-08-25 20:00:00,71.3,62.6,30.23,South,173,0.0,0.0,74,0.00,,,0.01,0,Wunderground v.1.15,2013-08-26 00:00:00,
2013-08-25 20:10:00,70.8,62.5,30.23,South,173,0.0,0.0,75,0.00,,,0.01,0,Wunderground v.1.15,2013-08-26 00:10:00,
2013-08-25 20:20:00,70.3,62.7,30.23,South,173,0.0,0.0,77,0.00,,,0.01,0,Wunderground v.1.15,2013-08-26 00:20:00,
2013-08-25 20:30:00,69.7,62.5,30.23,South,173,0.0,0.0,78,0.00,,,0.01,0,Wunderground v.1.15,2013-08-26 00:30:00,
2013-08-25 20:40:00,69.3,62.1,30.23,South,173,0.0,0.0,78,0.00,,,0.01,0,Wunderground v.1.15,2013-08-26 00:40:00,
2013-08-25 20:50:00,68.7,62.3,30.23,South,173,0.0,0.0,80,0.00,,,0.01,0,Wunderground v.1.15,2013-08-26 00:50:00,
2013-08-25 21:00:00,68.5,62.1,30.23,South,173,0.0,0.0,80,0.00,,,0.01,0,Wunderground v.1.15,2013-08-26 01:00:00,
2013-08-25 21:10:00,68.5,62.1,30.23,South,173,0.0,0.0,80,0.00,,,0.01,0,Wunderground v.1.15,2013-08-26 01:10:00,
2013-08-25 21:20:00,68.1,61.7,30.24,South,173,0.0,0.0,80,0.00,,,0.01,0,Wunderground v.1.15,2013-08-26 01:20:00,
2013-08-25 21:30:00,67.3,61.6,30.24,South,173,0.0,0.0,82,0.00,,,0.01,0,Wunderground v.1.15,2013-08-26 01:30:00,
2013-08-25 21:40:00,66.3,61.7,30.24,South,173,0.0,0.0,85,0.00,,,0.01,0,Wunderground v.1.15,2013-08-26 01:40:00,
2013-08-25 21:50:00,66.2,61.6,30.24,South,173,0.0,0.0,85,0.00,,,0.01,0,Wunderground v.1.15,2013-08-26 01:50:00,
2013-08-25 22:00:00,65.8,61.5,30.24,South,173,0.0,0.0,86,0.00,,,0.01,0,Wunderground v.1.15,2013-08-26 02:00:00,
2013-08-25 22:09:00,65.2,61.2,30.24,South,173,0.0,0.0,87,0.00,,,0.01,0,Wunderground v.1.15,2013-08-26 02:09:00,
2013-08-25 22:20:00,64.6,61.3,30.25,South,173,0.0,0.0,89,0.00,,,0.01,0,Wunderground v.1.15,2013-08-26 02:20:00,
2013-08-25 22:30:00,64.5,61.2,30.25,South,173,0.0,0.0,89,0.00,,,0.01,0,Wunderground v.1.15,2013-08-26 02:30:00,
2013-08-25 22:40:00,63.9,61.2,30.25,South,173,0.0,0.0,91,0.00,,,0.01,0,Wunderground v.1.15,2013-08-26 02:40:00,
2013-08-25 22:50:00,63.9,60.9,30.25,South,173,0.0,0.0,90,0.00,,,0.01,0,Wunderground v.1.15,2013-08-26 02:50:00,
2013-08-25 23:00:00,64.2,61.5,30.25,South,173,0.0,0.0,91,0.00,,,0.01,0,Wunderground v.1.15,2013-08-26 03:00:00,
2013-08-25 23:10:00,64.4,61.4,30.25,South,173,0.0,0.0,90,0.00,,,0.01,0,Wunderground v.1.15,2013-08-26 03:10:00,
2013-08-25 23:20:00,64.1,61.1,30.25,South,173,0.0,0.0,90,0.00,,,0.01,0,Wunderground v.1.15,2013-08-26 03:20:00,
2013-08-25 23:30:00,64.7,61.7,30.24,South,173,0.0,0.0,90,0.00,,,0.01,0,Wunderground v.1.15,2013-08-26 03:30:00,
2013-08-25 23:40:00,65.7,62.0,30.24,South,173,0.0,0.0,88,0.00,,,0.01,0,Wunderground v.1.15,2013-08-26 03:40:00,
2013-08-25 23:50:00,66.0,61.7,30.25,South,173,0.0,0.0,86,0.00,,,0.01,0,Wunderground v.1.15,2013-08-26 03:50:00,